Volver al catálogo

STARLINK-34081

ActivoComunicacionesVLEO
NORAD 64044·PAYLOAD·🇺🇸 United States

Lanzado May 16, 2025 desde Vandenberg Space Force Base

Loading…

Próximos Pases (próximas 24 horas)

TLE

ActualizadoSource: CelesTrak SupGP

Época: Sep 15, 2026, 03:57 UTC

1 64044C 25102Y   26258.16506944  .00092694  00000+0  32243-2 0  2589
2 64044  70.0013 355.0744 0003313 267.4088 142.0551 15.29534041    17

Sigue STARLINK-34081 en tiempo real con AllMySat

Download on the App Store